Starlink 11526

operational
NORAD ID: 63007 Int'l Des: 2025-032 Owner: SPXS Country: US Constellation: starlink
LEOCIRCULAR

Starlink 11526について

説明を読み込み中...

リアルタイム位置

3D地球を読み込み中...

次回通過

高度履歴

Altitude vs Time

uPlot chart will show altitude changes over time

軌道要素

1 63007U 25032C 25306.10984651 .00228912 00000-0 17306-2 0 9991
2 63007 42.9997 243.9166 0001316 184.2497 175.8360 15.70951977 42158
Epoch: Nov 2, 2025 • Age: 34 hours

現在のステータス

高度 352.7 km
速度 7.70 km/s
衛星直下点 11.76°N, 166.13°E
打ち上げ日 Feb 15, 2025
運用期間 0.7 years
タイプ internet

技術仕様

分類 Payload
質量 960.00 kg
乾燥質量 910.00 kg
総質量 960.00 kg
長さ 0.30 m
直径 4.10 m
スパン 29.00 m
形状 Box + pan
製造者 SPXS
バスタイプ Starlink V2MD
フェーズステータス In Orbit
所有者/国 SPXS/US

大規模コンステレーション

Loading constellations...